Home > Time Zones > World Clock > Weather > Peru > Lima > Past weeks

Flag for Peru Weather past 2 weeks in Lima, Lima, Peru

Now
75 °F

Sunny.


Feels Like: 77 °F
Forecast: N/A
Wind: 9 mph from South

Location: Lima-Callao / Aerop. Internacional Jorgechavez

Current Time: Dec 22, 2014 at 3:46:30 PM

Latest Report: Dec 22, 2014 at 3:00 PM


Visibility: 10 mi

Pressure: 29.86 "Hg

Humidity: 65%

Dew point: 63 °F

Location of LimaLocation

Historic Weather in Lima — Graph

°F

Lima temperature yesterday

Maximum temperature yesterday: 73 °F (at 1:00 PM)
Minimum temperature yesterday: 66 °F (at 12:00 AM)
Average temperature yesterday: 69 °F

Past Weeks' High & Low Weather Summary

 TemperatureHumidityPressure
High79 °F (Dec 9, 1:00 PM)94% (Dec 12, 3:00 AM)30.07 "Hg (Dec 12, 3:00 AM)
Low64 °F (Dec 14, 4:00 AM)54% (Dec 9, 1:00 PM)29.86 "Hg (Dec 7, 3:00 PM)
Average69 °F79%29.95 "Hg
* Reported Dec 7 3:00 PM — Dec 22 3:00 PM, Lima, Weather by CustomWeather, © 2014

Note: Actual official high and low records may vary slightly from our data, if they occured in-between our weather recording intervals... More about our weather records

Advertising

Lima weather history for previous 24 hours

 ConditionsComfort  
Time TempWeatherWind HumidityBarometerVisibility
3:00 PM
Dec 22
75 °FSunny.9 mph65%29.86 "Hg10 mi
2:00 PM75 °FPassing clouds.9 mph65%29.89 "HgN/A
1:00 PM73 °FScattered clouds.10 mph69%29.92 "HgN/A
12:00 PM75 °FScattered clouds.10 mph65%29.92 "HgN/A
11:00 AM75 °FPartly sunny.9 mph65%29.95 "HgN/A
10:00 AM72 °FPartly sunny.6 mph69%29.95 "HgN/A
9:00 AM72 °FOvercast.5 mph73%29.95 "HgN/A
8:00 AM70 °FOvercast.3 mph78%29.95 "HgN/A
7:00 AM68 °FOvercast.5 mph83%29.95 "HgN/A
6:00 AM66 °FOvercast.3 mph88%29.92 "HgN/A
5:00 AM66 °FOvercast.3 mph88%29.92 "HgN/A
4:00 AM66 °FOvercast.5 mph88%29.89 "HgN/A
3:00 AM64 °FPassing clouds.5 mph88%29.89 "HgN/A
2:00 AM64 °FPassing clouds.6 mph94%29.89 "HgN/A
1:00 AM66 °FPassing clouds.7 mph88%29.92 "HgN/A
12:00 AM66 °FPassing clouds.7 mph88%29.95 "HgN/A
11:00 PM
Dec 21
66 °FClear.7 mph88%29.98 "Hg10 mi
10:00 PM68 °FClear.8 mph83%29.95 "Hg10 mi
9:00 PM68 °FClear.9 mph83%29.95 "Hg10 mi
8:00 PM68 °FClear.10 mph83%29.95 "Hg10 mi
7:00 PM68 °FClear.8 mph83%29.92 "Hg10 mi
6:00 PM68 °FSunny.9 mph83%29.92 "Hg10 mi
5:00 PM70 °FPartly sunny.8 mph78%29.89 "HgN/A
4:00 PM72 °FScattered clouds.10 mph73%29.89 "HgN/A
3:00 PM73 °FScattered clouds.9 mph69%29.92 "HgN/A
Weather by CustomWeather, © 2014

See weather overviewHow to use our weather pages